GW2682 Weather Reports


time (UTC)temp
C
wind
direction
speed
KPH
gust
KPH
rain 1hr
cm
rain 24hr
cm
rain mn
cm
humidity
%
barometer
mb
20260506081018 16 232 6.4 17.7 0.00 0.05 0.00 63 1007.4
20260506080518 16 229 8.0 12.9 0.00 0.05 0.00 62 1007.3
20260506073519 16 226 12.9 25.7 0.00 0.05 0.00 60 1007.5
20260506073018 16 217 8.0 17.7 0.00 0.05 0.00 60 1007.5
20260506072519 16 239 9.7 17.7 0.00 0.05 0.00 60 1007.5
20260506072018 17 229 9.7 27.4 0.00 0.05 0.00 59 1007.5
20260506071518 17 217 14.5 27.4 0.00 0.05 0.00 59 1007.6
20260506071030 17 231 9.7 25.7 0.00 0.05 0.00 59 1007.6
20260506070518 17 238 11.3 22.5 0.00 0.05 0.00 58 1007.5
20260506062019 16 243 6.4 20.9 0.00 0.05 0.00 59 1007.9
20260506061520 16 237 8.0 17.7 0.00 0.05 0.00 59 1007.9
20260506061017 16 232 8.0 16.1 0.00 0.05 0.00 59 1008.1
20260506060518 16 212 6.4 14.5 0.00 0.05 0.00 59 1008.2
20260506051019 16 255 8.0 20.9 0.00 0.05 0.00 57 1008.4
20260506050518 16 223 6.4 14.5 0.00 0.05 0.00 57 1008.4
20260506045019 16 206 4.8 19.3 0.00 0.05 0.00 57 1008.5
20260506044519 16 168 6.4 12.9 0.00 0.05 0.00 57 1008.6
20260506044018 16 223 3.2 11.3 0.00 0.05 0.00 57 1008.7
20260506043519 16 246 3.2 11.3 0.00 0.05 0.00 57 1008.6
20260506043019 16 247 4.8 8.0 0.00 0.05 0.00 57 1008.7
20260506042519 17 200 4.8 11.3 0.00 0.05 0.00 56 1008.7
20260506042019 17 251 4.8 11.3 0.00 0.05 0.00 56 1008.5
20260506041521 17 232 4.8 9.7 0.00 0.05 0.00 56 1008.6
20260506041032 17 266 4.8 9.7 0.00 0.05 0.00 56 1008.7
20260506040519 17 242 4.8 8.0 0.00 0.05 0.00 56 1008.7
20260506040020 17 197 4.8 8.0 0.00 0.05 0.00 56 1008.7
20260506035520 17 231 4.8 8.0 0.00 0.05 0.05 56 1008.6
20260506035019 17 231 4.8 9.7 0.00 0.05 0.05 56 1008.8
20260506034519 17 231 3.2 12.9 0.00 0.05 0.05 55 1008.6
20260506034041 17 222 6.4 12.9 0.00 0.05 0.05 55 1008.7
20260506033519 17 229 6.4 12.9 0.00 0.05 0.05 55 1008.8
20260506033021 17 265 4.8 8.0 0.00 0.05 0.05 55 1008.7
20260506032530 17 212 4.8 8.0 0.00 0.05 0.05 54 1008.7
20260506032019 17 248 3.2 8.0 0.00 0.05 0.05 54 1008.7
20260506031520 18 219 4.8 6.4 0.00 0.05 0.05 54 1008.7
20260506031041 18 229 3.2 11.3 0.00 0.05 0.05 54 1008.6
20260506030531 18 229 4.8 11.3 0.00 0.05 0.05 53 1008.7
20260506030019 18 223 8.0 11.3 0.00 0.05 0.05 53 1008.8
20260506025519 18 236 8.0 11.3 0.00 0.05 0.05 53 1008.6
20260506025019 18 226 4.8 11.3 0.00 0.05 0.05 53 1008.6
20260506024519 18 220 8.0 12.9 0.00 0.05 0.05 52 1008.5
20260506024019 18 214 8.0 16.1 0.00 0.05 0.05 52 1008.5
20260506023531 18 240 8.0 16.1 0.00 0.05 0.05 51 1008.7
20260506023019 19 235 9.7 17.7 0.00 0.05 0.05 51 1008.6
20260506022519 19 236 9.7 17.7 0.00 0.05 0.05 51 1008.7
20260506022030 19 238 11.3 16.1 0.00 0.05 0.05 51 1008.8
20260506021531 19 226 9.7 17.7 0.00 0.05 0.05 50 1008.8
20260506021019 19 233 8.0 17.7 0.00 0.05 0.05 50 1008.7
20260506020542 19 240 8.0 17.7 0.00 0.05 0.05 50 1008.8
20260506020018 20 210 9.7 16.1 0.00 0.05 0.05 50 1008.8
20260506015519 20 235 9.7 16.1 0.00 0.05 0.05 50 1008.6
20260506015019 20 225 8.0 16.1 0.00 0.05 0.05 49 1008.8
20260506014520 20 260 6.4 14.5 0.00 0.05 0.05 49 1008.7
20260506014043 20 193 8.0 19.3 0.00 0.05 0.05 49 1008.6
20260506013519 20 248 8.0 22.5 0.00 0.05 0.05 49 1008.5
20260506013012 20 236 9.7 17.7 0.00 0.05 0.05 49 1008.5
20260506012512 20 226 4.8 14.5 0.00 0.05 0.05 49 1008.4
20260506012012 20 242 6.4 14.5 0.00 0.05 0.05 48 1008.4
20260506011513 20 219 9.7 14.5 0.00 0.05 0.05 48 1008.4
20260506011025 20 213 6.4 17.7 0.00 0.05 0.05 47 1008.3
20260506010513 20 243 9.7 17.7 0.00 0.05 0.05 46 1008.2
20260506010013 20 236 8.0 14.5 0.00 0.05 0.05 46 1008.2
20260506005513 21 224 8.0 17.7 0.00 0.05 0.05 45 1008.2
20260506005012 21 232 8.0 17.7 0.00 0.05 0.05 44 1008.1
20260506004524 21 229 9.7 17.7 0.00 0.05 0.05 44 1008.0
20260506004013 21 259 6.4 12.9 0.00 0.05 0.05 44 1008.0
20260506003513 21 238 6.4 19.3 0.00 0.05 0.05 44 1008.1
20260506003013 21 276 12.9 19.3 0.00 0.05 0.05 43 1007.9
20260506002514 21 221 11.3 20.9 0.00 0.05 0.05 44 1007.8
20260506002023 21 230 9.7 20.9 0.00 0.05 0.05 44 1007.7
20260506001524 21 216 9.7 24.1 0.00 0.05 0.05 44 1007.6
20260506001024 21 224 11.3 29.0 0.00 0.05 0.05 43 1007.7
20260506000525 21 226 17.7 29.0 0.00 0.05 0.05 43 1007.7
20260505235012 21 215 12.9 22.5 0.00 0.05 0.05 44 1007.6
20260505234513 21 241 12.9 20.9 0.00 0.05 0.05 43 1007.7
20260505234014 21 240 14.5 19.3 0.00 0.05 0.05 44 1007.5
20260505233513 21 234 11.3 22.5 0.00 0.05 0.05 44 1007.6
20260505233024 21 230 11.3 22.5 0.00 0.05 0.05 45 1007.4
20260505232513 21 221 9.7 27.4 0.00 0.05 0.05 45 1007.5
20260505232024 21 224 14.5 24.1 0.00 0.05 0.05 45 1007.3
20260505231512 21 226 14.5 24.1 0.00 0.05 0.05 45 1007.5
20260505231013 21 242 14.5 22.5 0.00 0.05 0.05 44 1007.5
20260505230513 21 202 12.9 20.9 0.00 0.05 0.05 45 1007.4
20260505230013 21 233 8.0 20.9 0.00 0.05 0.05 46 1007.5
20260505225513 21 240 9.7 19.3 0.00 0.05 0.05 46 1007.5
20260505225024 21 219 11.3 25.7 0.00 0.05 0.05 45 1007.4
20260505224513 21 202 11.3 20.9 0.00 0.05 0.05 45 1007.2
20260505224013 21 255 12.9 24.1 0.00 0.05 0.05 45 1007.1
20260505223524 21 210 8.0 19.3 0.00 0.05 0.05 46 1007.0
20260505223013 21 225 11.3 19.3 0.00 0.05 0.05 46 1007.0
20260505222514 21 236 9.7 16.1 0.00 0.05 0.05 46 1007.2
20260505222013 21 221 8.0 19.3 0.00 0.05 0.05 46 1007.3
20260505221514 21 230 11.3 22.5 0.00 0.05 0.05 46 1007.3
20260505221013 21 226 9.7 24.1 0.00 0.05 0.05 46 1007.2
20260505220513 21 243 14.5 30.6 0.00 0.05 0.05 45 1007.2
20260505220024 21 198 17.7 35.4 0.00 0.05 0.05 45 1007.2
20260505215514 21 229 12.9 24.1 0.05 0.05 0.05 46 1007.2
20260505215013 21 233 11.3 24.1 0.05 0.05 0.05 47 1007.2
20260505214513 21 236 14.5 24.1 0.05 0.05 0.05 47 1007.2
20260505214013 21 219 12.9 27.4 0.05 0.05 0.05 49 1007.2
20260505213514 20 217 16.1 27.4 0.05 0.05 0.05 51 1007.0
20260505212514 20 242 4.8 14.5 0.05 0.05 0.05 63 1006.9
20260505212013 19 290 4.8 9.7 0.05 0.05 0.05 63 1006.8
20260505211514 18 215 4.8 9.7 0.05 0.05 0.05 69 1006.9
20260505211047 18 320 1.6 16.1 0.05 0.05 0.05 70 1006.9
20260505210514 18 117 4.8 38.6 0.05 0.05 0.05 69 1007.0
20260505210025 20 275 16.1 51.5 0.05 0.05 0.05 55 1007.4
20260505205514 21 224 30.6 51.5 0.00 0.00 0.00 45 1007.6
20260505205013 22 226 16.1 25.7 0.00 0.00 0.00 41 1006.8
20260505204514 22 233 9.7 29.0 0.00 0.00 0.00 41 1006.5
20260505204013 22 240 16.1 35.4 0.00 0.00 0.00 41 1006.5
20260505203514 22 233 17.7 38.6 0.00 0.00 0.00 40 1006.4
20260505203014 22 132 17.7 33.8 0.00 0.00 0.00 41 1006.5
20260505202514 22 220 17.7 35.4 0.00 0.00 0.00 41 1006.5
20260505202014 22 221 19.3 35.4 0.00 0.00 0.00 41 1006.4
20260505201514 22 239 14.5 32.2 0.00 0.00 0.00 40 1006.4
20260505201015 23 231 17.7 32.2 0.00 0.00 0.00 39 1006.2
20260505200513 23 234 22.5 43.5 0.00 0.00 0.00 38 1006.3
20260505200025 23 221 20.9 43.5 0.00 0.00 0.00 38 1006.3
20260505195514 23 195 17.7 38.6 0.00 0.00 0.00 38 1006.2
20260505195025 23 223 12.9 37.0 0.00 0.00 0.00 40 1006.4
20260505194526 23 252 22.5 40.2 0.00 0.00 0.00 39 1006.4
20260505194014 23 228 24.1 38.6 0.00 0.00 0.00 38 1006.1
20260505193526 23 232 17.7 27.4 0.00 0.00 0.00 40 1006.2
20260505193014 23 223 16.1 27.4 0.00 0.00 0.00 40 1006.6
20260505192515 23 205 16.1 35.4 0.00 0.00 0.00 39 1006.7
20260505192014 23 242 19.3 35.4 0.00 0.00 0.00 38 1006.9
20260505191514 23 224 17.7 29.0 0.00 0.00 0.00 40 1007.0
20260505191014 23 259 12.9 32.2 0.00 0.00 0.00 40 1007.0
20260505190514 23 220 12.9 37.0 0.00 0.00 0.00 40 1007.1
20260505190018 23 226 20.9 37.0 0.00 0.00 0.00 42 1007.1
20260505185514 23 243 17.7 37.0 0.00 0.00 0.00 43 1007.3
20260505185014 23 202 12.9 43.5 0.00 0.00 0.00 42 1007.3
20260505184516 23 255 17.7 30.6 0.00 0.00 0.00 42 1007.4
20260505184026 22 217 12.9 33.8 0.00 0.00 0.00 42 1007.4
20260505183514 23 235 20.9 33.8 0.00 0.00 0.00 40 1007.4
20260505183014 23 243 20.9 32.2 0.00 0.00 0.00 41 1007.5
20260505182525 23 233 19.3 27.4 0.00 0.00 0.00 40 1007.5
20260505182014 23 175 12.9 37.0 0.00 0.00 0.00 42 1007.5
20260505181514 22 207 19.3 40.2 0.00 0.00 0.00 41 1007.8
20260505181015 22 246 19.3 37.0 0.00 0.00 0.00 41 1007.7
20260505180514 23 190 16.1 37.0 0.00 0.00 0.00 41 1007.6
20260505180025 22 245 24.1 51.5 0.00 0.00 0.00 41 1007.6
20260505175514 23 238 25.7 51.5 0.00 0.00 0.00 40 1007.9
20260505175016 23 219 19.3 45.1 0.00 0.00 0.00 40 1007.7
20260505174514 23 248 22.5 43.5 0.00 0.00 0.00 39 1007.5
20260505174014 23 232 29.0 43.5 0.00 0.00 0.00 38 1007.6
20260505173514 23 261 19.3 33.8 0.00 0.00 0.00 41 1007.7
20260505173015 23 191 19.3 37.0 0.00 0.00 0.00 44 1007.6
20260505172514 22 207 22.5 37.0 0.00 0.00 0.00 42 1007.8
20260505172015 22 245 24.1 43.5 0.00 0.00 0.00 43 1007.7
20260505171515 22 238 25.7 43.5 0.00 0.00 0.00 43 1007.7
20260505171015 22 261 24.1 38.6 0.00 0.00 0.00 42 1007.8
20260505170514 22 221 16.1 40.2 0.00 0.00 0.00 44 1007.8
20260505170018 22 241 24.1 40.2 0.00 0.00 0.00 43 1007.9
20260505165515 22 221 20.9 35.4 0.00 0.00 0.00 44 1007.8
20260505165015 22 202 24.1 38.6 0.00 0.00 0.00 43 1007.8
20260505164515 22 231 20.9 38.6 0.00 0.00 0.00 44 1008.1
20260505164014 22 233 20.9 33.8 0.00 0.00 0.00 45 1008.1
20260505163527 22 245 16.1 38.6 0.00 0.00 0.00 43 1008.1
20260505163015 22 187 16.1 33.8 0.00 0.00 0.00 47 1008.1
20260505162528 22 223 22.5 35.4 0.00 0.00 0.00 44 1008.1
20260505162016 22 220 19.3 35.4 0.00 0.00 0.00 45 1008.2
20260505161516 22 212 22.5 32.2 0.00 0.00 0.00 45 1008.3
20260505161016 22 261 11.3 29.0 0.00 0.00 0.00 46 1008.2
20260505160516 22 210 9.7 35.4 0.00 0.00 0.00 48 1008.3
20260505153016 22 234 20.9 35.4 0.00 0.00 0.00 48 1008.8
20260505152516 21 251 16.1 38.6 0.00 0.00 0.00 48 1008.8
20260505152016 22 218 20.9 38.6 0.00 0.00 0.00 48 1009.0
20260505151517 21 226 17.7 38.6 0.00 0.00 0.00 50 1008.9
20260505150518 22 188 14.5 27.4 0.00 0.00 0.00 50 1008.9
20260505140516 20 227 22.5 40.2 0.00 0.00 0.00 52 1009.0
20260505125016 18 238 12.9 32.2 0.00 0.00 0.00 59 1009.3
20260505124527 17 251 20.9 35.4 0.00 0.00 0.00 58 1009.3
20260505124028 17 250 20.9 35.4 0.00 0.00 0.00 59 1009.3
20260505123517 17 241 12.9 25.7 0.00 0.00 0.00 59 1009.3
20260505123016 17 217 11.3 19.3 0.00 0.00 0.00 61 1009.1
20260505122539 17 243 9.7 19.3 0.00 0.00 0.00 61 1009.1
20260505122016 17 217 9.7 19.3 0.00 0.00 0.00 63 1009.1
20260505121550 16 241 11.3 17.7 0.00 0.00 0.00 63 1009.2
20260505121016 16 228 11.3 17.7 0.00 0.00 0.00 64 1009.3
20260505120539 16 248 8.0 17.7 0.00 0.00 0.00 65 1009.2
20260505120017 16 227 8.0 16.1 0.00 0.00 0.00 66 1009.2
20260505115516 15 235 8.0 22.5 0.00 0.00 0.00 67 1009.3
20260505115017 15 252 9.7 22.5 0.00 0.00 0.00 67 1009.3
20260505114516 15 227 11.3 20.9 0.00 0.00 0.00 68 1009.3
20260505114016 15 243 12.9 20.9 0.00 0.00 0.00 68 1009.4
20260505113517 15 233 12.9 24.1 0.00 0.00 0.00 68 1009.4
20260505113017 15 229 12.9 24.1 0.00 0.00 0.00 68 1009.3
20260505112517 15 230 14.5 22.5 0.00 0.00 0.00 69 1009.4
20260505112018 15 226 9.7 17.7 0.00 0.00 0.00 70 1009.3
20260505111517 14 252 9.7 24.1 0.00 0.00 0.00 70 1009.3
20260505111017 14 265 12.9 24.1 0.00 0.00 0.00 70 1009.2
20260505110517 14 264 9.7 19.3 0.00 0.00 0.00 71 1009.2
20260505102017 12 259 6.4 16.1 0.00 0.00 0.00 76 1008.6
20260505101528 12 221 8.0 20.9 0.00 0.00 0.00 76 1008.6
20260505100528 12 177 6.4 14.5 0.00 0.00 0.00 75 1008.6
20260505100018 12 230 6.4 12.9 0.00 0.00 0.00 74 1008.5
20260505095517 12 240 8.0 12.9 0.00 0.00 0.00 74 1008.5
20260505095018 12 148 4.8 12.9 0.00 0.00 0.00 73 1008.6
20260505094517 12 221 8.0 14.5 0.00 0.00 0.00 73 1008.5
20260505094017 12 229 8.0 14.5 0.00 0.00 0.00 73 1008.5
20260505093517 12 262 6.4 12.9 0.00 0.00 0.00 73 1008.5
20260505093018 12 245 6.4 12.9 0.00 0.00 0.00 73 1008.5
20260505092518 12 222 6.4 12.9 0.00 0.00 0.00 72 1008.4
20260505092017 12 217 6.4 12.9 0.00 0.00 0.00 72 1008.3
20260505091518 12 237 4.8 11.3 0.00 0.00 0.00 72 1008.4
20260505091017 12 203 3.2 16.1 0.00 0.00 0.00 73 1008.4
20260505090517 12 198 3.2 16.1 0.00 0.00 0.00 73 1008.5
20260505090029 12 176 1.6 8.0 0.00 0.00 0.00 74 1008.6
20260505085518 12 232 1.6 4.8 0.00 0.00 0.00 76 1008.6
20260505085017 12 206 0.0 6.4 0.00 0.00 0.00 77 1008.7
20260505084517 12 176 1.6 4.8 0.00 0.00 0.00 77 1008.6
20260505083518 12 278 1.6 11.3 0.00 0.00 0.00 74 1008.9
20260505083028 12 283 4.8 14.5 0.00 0.00 0.00 74 1008.9
20260505082518 12 285 8.0 16.1 0.00 0.00 0.00 74 1008.7
20260505082041 12 260 4.8 27.4 0.00 0.00 0.00 73 1008.1
20260505081518 12 218 11.3 27.4 0.00 0.00 0.00 71 1008.3